TimeCDT,TemperatureF,Dew PointF,Humidity,Sea Level PressureIn,VisibilityMPH,Wind Direction,Wind SpeedMPH,Gust SpeedMPH,PrecipitationIn,Events,Conditions,WindDirDegrees,DateUTC
12:53 AM,64.9,63.0,93,29.97,10.0,SE,4.6,-,0.00,,Partly Cloudy,140,2013-04-28 05:53:00
1:53 AM,64.0,63.0,96,29.96,10.0,Calm,Calm,-,N/A,,Mostly Cloudy,0,2013-04-28 06:53:00
2:40 AM,64.4,62.6,94,29.97,10.0,NW,3.5,-,N/A,,Overcast,320,2013-04-28 07:40:00
2:53 AM,64.0,63.0,96,29.97,10.0,NW,3.5,-,N/A,,Overcast,310,2013-04-28 07:53:00
3:48 AM,62.6,62.6,100,29.97,9.0,Calm,Calm,-,N/A,,Overcast,0,2013-04-28 08:48:00
3:49 AM,62.6,62.6,100,29.97,9.0,Calm,Calm,-,N/A,,Overcast,0,2013-04-28 08:49:00
3:53 AM,63.0,62.1,97,29.96,9.0,Calm,Calm,-,N/A,,Overcast,0,2013-04-28 08:53:00
4:06 AM,62.6,62.6,100,29.97,8.0,SSW,3.5,-,N/A,,Overcast,200,2013-04-28 09:06:00
4:13 AM,62.6,62.6,100,29.97,7.0,SW,3.5,-,N/A,,Overcast,220,2013-04-28 09:13:00
4:32 AM,64.4,62.6,94,29.97,8.0,Calm,Calm,-,0.01,,Overcast,0,2013-04-28 09:32:00
4:53 AM,64.0,63.0,96,29.98,7.0,Calm,Calm,-,0.01,Rain,Light Rain,0,2013-04-28 09:53:00
5:21 AM,64.4,62.6,94,29.97,6.0,Calm,Calm,-,0.00,,Overcast,0,2013-04-28 10:21:00
5:32 AM,64.4,62.6,94,29.97,6.0,Calm,Calm,-,0.00,,Overcast,0,2013-04-28 10:32:00
5:51 AM,62.6,62.6,100,29.97,6.0,Calm,Calm,-,0.00,,Overcast,0,2013-04-28 10:51:00
5:53 AM,63.0,62.1,97,29.97,6.0,Calm,Calm,-,0.00,,Overcast,0,2013-04-28 10:53:00
6:14 AM,62.6,62.6,100,29.97,6.0,Calm,Calm,-,N/A,,Overcast,0,2013-04-28 11:14:00
6:53 AM,63.0,62.1,97,29.98,5.0,Calm,Calm,-,N/A,,Overcast,0,2013-04-28 11:53:00
7:43 AM,62.6,62.6,100,29.99,4.0,Calm,Calm,-,N/A,,Overcast,0,2013-04-28 12:43:00
7:53 AM,62.6,62.6,100,29.98,2.0,NNW,3.5,-,N/A,Rain,Light Rain,340,2013-04-28 12:53:00
8:01 AM,62.6,62.6,100,29.99,1.8,Calm,Calm,-,0.01,Rain,Light Rain,0,2013-04-28 13:01:00
8:21 AM,62.6,62.6,100,29.98,2.5,North,4.6,-,0.01,Rain,Light Rain,360,2013-04-28 13:21:00
8:31 AM,62.6,62.6,100,29.99,3.0,Variable,3.5,-,0.01,,Overcast,0,2013-04-28 13:31:00
8:53 AM,62.1,61.0,96,29.99,4.0,NNW,3.5,-,0.01,Rain,Light Rain,340,2013-04-28 13:53:00
9:14 AM,62.6,60.8,94,29.98,5.0,NW,3.5,-,0.01,Rain,Light Rain,320,2013-04-28 14:14:00
9:40 AM,62.6,60.8,94,29.99,6.0,WNW,3.5,-,0.04,Rain,Light Rain,290,2013-04-28 14:40:00
9:53 AM,62.1,61.0,96,29.99,7.0,NNW,3.5,-,0.04,Rain,Light Rain,330,2013-04-28 14:53:00
10:09 AM,62.6,60.8,94,30.00,7.0,Variable,4.6,-,0.00,Rain,Light Rain,0,2013-04-28 15:09:00
10:12 AM,62.6,60.8,94,29.99,6.0,NNW,6.9,-,0.00,Rain,Light Rain,330,2013-04-28 15:12:00
10:32 AM,62.6,60.8,94,30.00,7.0,WNW,3.5,-,0.00,,Overcast,300,2013-04-28 15:32:00
10:53 AM,63.0,61.0,93,29.99,8.0,Variable,3.5,-,0.00,,Overcast,0,2013-04-28 15:53:00
11:01 AM,64.4,62.6,94,30.00,9.0,Variable,3.5,-,N/A,,Overcast,0,2013-04-28 16:01:00
11:21 AM,64.4,60.8,88,30.00,10.0,Variable,4.6,-,N/A,,Overcast,0,2013-04-28 16:21:00
11:53 AM,64.9,60.1,84,29.99,10.0,WNW,5.8,-,N/A,,Overcast,290,2013-04-28 16:53:00
12:37 PM,64.4,60.8,88,29.99,9.0,NW,5.8,-,N/A,,Overcast,310,2013-04-28 17:37:00
12:53 PM,64.9,60.1,84,29.98,9.0,NNW,6.9,-,N/A,,Overcast,330,2013-04-28 17:53:00
1:53 PM,68.0,57.9,70,29.96,10.0,WNW,9.2,-,N/A,,Mostly Cloudy,290,2013-04-28 18:53:00
2:01 PM,68.0,57.2,68,29.97,10.0,Variable,4.6,-,N/A,,Scattered Clouds,0,2013-04-28 19:01:00
2:11 PM,68.0,59.0,73,29.98,10.0,NNW,8.1,-,N/A,,Mostly Cloudy,340,2013-04-28 19:11:00
2:53 PM,68.0,57.9,70,29.99,10.0,WNW,5.8,-,N/A,,Mostly Cloudy,300,2013-04-28 19:53:00
3:35 PM,68.0,57.2,68,29.98,10.0,WNW,3.5,-,N/A,,Scattered Clouds,300,2013-04-28 20:35:00
3:53 PM,70.0,57.9,65,29.97,10.0,Calm,Calm,-,N/A,,Scattered Clouds,0,2013-04-28 20:53:00
4:00 PM,69.8,57.2,64,29.97,10.0,NNE,3.5,-,N/A,,Mostly Cloudy,20,2013-04-28 21:00:00
4:14 PM,69.8,57.2,64,29.97,10.0,Calm,Calm,-,N/A,,Scattered Clouds,0,2013-04-28 21:14:00
4:53 PM,71.1,57.0,61,29.95,10.0,Calm,Calm,-,N/A,,Clear,0,2013-04-28 21:53:00
5:53 PM,71.1,57.9,63,29.95,10.0,Calm,Calm,-,N/A,,Clear,0,2013-04-28 22:53:00
6:53 PM,68.0,57.9,70,29.94,10.0,SSE,3.5,-,N/A,,Clear,150,2013-04-28 23:53:00
7:53 PM,63.0,59.0,87,29.94,10.0,Calm,Calm,-,N/A,,Clear,0,2013-04-29 00:53:00
8:53 PM,60.1,57.9,93,29.95,9.0,Calm,Calm,-,N/A,,Clear,0,2013-04-29 01:53:00
9:38 PM,57.2,57.2,100,29.97,2.0,Calm,Calm,-,N/A,,Clear,0,2013-04-29 02:38:00
9:53 PM,57.0,55.9,96,29.98,2.0,Calm,Calm,-,N/A,,Clear,0,2013-04-29 02:53:00
10:00 PM,57.2,55.4,94,29.98,1.5,Calm,Calm,-,N/A,,Clear,0,2013-04-29 03:00:00
10:09 PM,57.2,57.2,100,29.98,6.0,Calm,Calm,-,N/A,,Clear,0,2013-04-29 03:09:00
10:36 PM,55.4,53.6,94,29.98,1.2,Calm,Calm,-,N/A,,Partly Cloudy,0,2013-04-29 03:36:00
10:43 PM,53.6,53.6,100,29.98,0.5,Calm,Calm,-,N/A,Fog,Fog,0,2013-04-29 03:43:00
10:48 PM,55.4,55.4,100,29.98,1.5,Calm,Calm,-,N/A,,Partly Cloudy,0,2013-04-29 03:48:00
10:50 PM,55.4,55.4,100,29.98,3.0,Calm,Calm,-,N/A,,Partly Cloudy,0,2013-04-29 03:50:00
10:53 PM,55.9,55.0,97,29.98,5.0,Calm,Calm,-,N/A,,Partly Cloudy,0,2013-04-29 03:53:00
11:04 PM,55.4,53.6,94,29.98,1.8,Calm,Calm,-,N/A,,Partly Cloudy,0,2013-04-29 04:04:00
11:24 PM,55.4,53.6,94,29.98,4.0,Calm,Calm,-,N/A,,Clear,0,2013-04-29 04:24:00
11:53 PM,55.0,54.0,96,29.98,6.0,Calm,Calm,-,N/A,,Clear,0,2013-04-29 04:53:00